Location: *
(2.7500°S, 66.6833°W)
Time: 23:55:54
(UTC+00:00)

ADEOS - Pass Details

Date: 24 May 2024
Orbit: 790 x 793 km, 98.9° (Epoch: 13 June)

Event Time Altitude Azimuth Distance (km) Brightness Sun altitude
Exits shadow 23:29:14 24° 128° (SE) 1,577 4.5 -16.3°
Maximum altitude 23:31:41 39° 77° (ENE) 1,183 4.1 -16.8°
Drops below altitude 10° 23:36:28 10° 10° (N) 2,349 6.1 -18.0°
Sets 23:38:55 0° 2° (N) 3,274 7.0 -18.5°
